Theta_e
296 297 296 295 295 295 295 295 295 295 294 295 296 296 296 296 296 297 296 297 297 302 301 304 305 303 304 302 302 301 303 303 301 304 304 304 305 307 308 308 308 307 306 306 306 306 305 300 301 303 299 297 297 295
299 299 298 298 298 298 297 296 296 295 295 295 296 296 297 296 296 298 296 298 298 299 301 302 303 303 303 303 300 300 301 300 299 302 303 305 305 305 306 309 307 307 304 302 302 302 297 298 299 298 297 296 295 294
300 300 302 301 301 300 299 298 297 296 296 296 296 296 297 297 297 297 297 299 299 300 298 299 301 304 304 304 305 301 301 302 302 303 305 306 307 304 307 308 307 305 303 302 301 298 297 298 296 296 295 292 291 291
300 300 303 305 304 301 301 299 299 297 296 296 296 296 297 298 298 297 297 299 298 299 301 302 301 303 304 304 304 303 303 303 303 303 304 305 305 305 303 306 306 301 301 299 297 294 296 295 294 292 290 288 288 288
300 299 300 303 303 301 302 300 299 298 297 296 296 297 298 298 297 297 297 299 298 301 301 302 301 302 303 304 304 304 304 303 303 303 302 303 302 301 297 301 300 298 298 298 298 295 295 290 291 290 289 288 287 286
300 301 300 299 299 299 299 298 298 298 298 296 297 298 298 297 298 298 297 299 299 301 298 301 300 302 303 304 304 305 303 303 303 302 301 300 302 299 295 298 297 297 295 294 295 294 292 291 290 290 289 288 287 286
300 300 300 299 299 299 299 299 299 298 298 298 298 298 297 297 298 297 299 298 297 298 297 300 301 301 302 302 303 303 303 303 303 302 301 300 300 299 295 295 294 293 293 293 292 292 293 291 291 290 289 289 288 287
300 300 300 300 299 299 298 298 298 298 298 298 298 297 297 298 298 299 301 299 298 300 298 297 301 302 302 302 300 300 300 301 301 302 300 300 298 294 295 291 291 293 292 292 292 293 292 290 290 290 290 289 288 287
300 300 300 299 299 299 299 299 299 298 298 299 298 298 299 299 298 300 300 300 300 300 298 297 300 301 300 300 300 300 299 301 298 299 300 299 296 298 296 294 293 292 293 292 292 291 290 290 291 291 291 290 288 287
298 300 300 300 299 299 299 299 299 299 299 299 299 297 297 299 300 300 300 300 299 300 299 299 298 299 300 299 300 299 298 299 299 298 298 297 296 299 299 295 294 293 293 292 291 291 291 291 291 291 291 289 288 286
297 298 300 301 300 300 300 299 300 299 299 299 296 298 298 299 300 299 299 300 298 300 298 297 299 301 300 301 300 298 297 297 301 299 299 297 297 295 296 294 293 293 293 292 291 290 290 290 291 291 289 288 286 283
297 297 298 298 298 298 298 298 298 299 300 298 299 299 299 300 298 298 297 298 299 301 297 300 300 300 300 298 298 298 299 296 298 295 295 295 295 297 295 294 293 293 294 293 291 290 290 290 291 290 289 287 284 282
297 298 298 298 299 299 299 299 300 300 300 299 299 298 298 295 295 295 297 299 297 297 298 298 299 299 299 297 296 297 295 295 295 289 296 294 294 297 296 295 294 293 293 292 290 290 290 290 290 290 286 284 283 281
295 297 298 299 299 299 299 300 299 298 299 297 296 295 296 294 296 299 299 299 296 298 300 298 297 299 293 298 293 293 295 296 291 293 298 294 297 295 294 293 292 291 290 290 289 290 289 287 285 284 283 283 281 279
294 296 296 297 298 299 299 299 298 298 297 296 296 296 295 296 297 298 297 296 294 294 296 297 295 296 294 294 294 294 293 292 294 296 299 293 294 291 292 292 290 287 286 288 287 285 284 283 282 281 281 281 281 279
293 294 294 297 297 297 297 297 297 298 294 295 296 295 298 300 301 298 296 300 297 293 293 294 295 292 294 295 297 293 297 295 294 297 295 294 294 293 291 290 288 286 285 284 284 283 283 282 281 280 280 280 280 280
293 293 294 296 297 297 296 297 297 294 296 297 297 296 297 298 299 298 298 297 295 296 294 296 294 297 295 295 299 300 293 288 295 293 292 293 294 292 289 288 285 284 283 283 283 282 281 281 280 279 278 277 278 278
293 294 295 295 295 296 296 296 292 294 298 296 296 297 295 295 296 296 294 293 295 294 295 297 296 298 293 299 298 293 294 292 291 291 291 293 292 290 289 287 285 284 283 282 282 281 280 279 279 279 278 277 277 276
293 293 294 295 295 296 292 293 294 296 296 296 295 294 291 291 291 291 291 292 295 296 295 296 298 300 299 295 291 294 293 292 290 289 290 290 291 290 289 287 285 284 283 282 281 280 280 280 279 278 277 277 277 276
292 293 294 295 295 293 292 291 294 294 295 295 290 291 290 291 290 291 290 292 293 294 297 299 299 297 297 294 290 293 291 290 289 289 288 288 289 289 288 288 287 284 283 282 282 280 280 280 279 278 277 277 276 276
292 292 293 294 294 294 291 292 293 292 292 292 293 295 293 292 290 290 290 291 294 295 298 296 295 291 292 292 293 293 291 289 289 288 286 288 288 288 287 286 285 284 283 283 281 281 281 281 279 278 277 277 277 276
291 292 292 292 290 290 290 291 292 291 292 293 294 294 294 291 286 288 290 294 296 295 293 292 289 289 292 292 292 292 292 292 289 288 288 288 287 287 287 285 284 282 282 282 282 281 281 282 280 279 278 278 277 277
290 291 291 289 286 285 288 289 291 293 292 292 294 294 293 290 289 291 292 296 293 291 291 291 292 291 290 290 291 291 291 291 288 287 287 288 288 287 287 286 285 283 282 283 283 282 282 281 280 279 279 279 278 279
290 289 285 285 286 284 285 286 290 291 291 294 292 293 293 291 290 294 298 295 292 290 289 290 291 290 290 291 290 288 289 291 289 289 289 289 287 287 287 287 286 286 285 285 284 283 282 281 280 279 280 279 279 278
284 284 282 279 284 284 283 283 285 289 286 289 289 288 286 292 291 289 296 293 290 289 289 290 290 291 290 288 287 287 289 290 289 287 288 289 287 287 287 287 287 288 287 285 283 283 281 280 281 280 280 279 278 277
282 282 284 282 282 285 287 284 283 285 284 284 286 289 288 286 285 294 293 290 289 288 287 288 289 289 289 289 287 286 287 288 288 286 286 287 287 286 285 285 284 285 286 286 284 283 281 281 281 280 279 278 277 276
282 281 287 287 289 289 283 283 287 283 282 284 283 281 279 282 286 292 288 286 287 286 286 287 287 288 287 285 284 284 286 287 287 284 284 285 286 286 286 285 284 285 286 286 285 284 282 282 281 280 279 277 277 277
284 285 282 283 283 284 280 279 281 283 286 291 284 282 284 288 288 287 286 286 286 285 285 286 286 287 286 285 284 284 283 283 283 283 282 282 282 284 285 285 285 284 284 285 285 284 283 282 280 279 278 276 275 275
282 282 285 281 280 282 284 286 288 290 289 284 282 287 290 287 285 285 285 285 285 285 285 284 284 284 284 284 284 283 282 282 281 273 272 272 276 281 282 282 282 283 283 283 283 283 282 281 280 278 277 275 274 274
283 282 280 276 279 287 289 288 289 287 287 288 286 287 286 284 281 282 283 283 283 283 284 286 285 284 284 284 283 283 283 283 283 283 274 271 277 280 281 281 281 281 281 281 279 278 280 279 277 276 275 273 272 271
288 279 279 279 284 288 287 285 286 286 286 287 287 288 286 282 278 277 278 279 280 281 282 283 284 285 286 284 283 283 282 283 283 283 284 281 280 280 280 280 280 280 280 279 278 277 276 275 274 273 272 270 269 269
284 285 284 286 284 284 286 286 287 288 287 287 286 286 286 286 280 273 276 278 278 277 278 279 279 280 283 284 284 284 284 282 282 282 281 280 279 279 279 278 278 278 278 277 276 275 275 274 272 271 269 268 267 266
287 287 283 281 288 287 281 276 282 287 283 280 280 277 278 277 276 273 276 275 276 277 277 278 278 279 280 281 282 282 281 281 280 280 279 279 278 277 277 277 276 276 276 275 274 273 272 271 269 268 266 265 265 264
Wind_Speed
46 51 59 64 64 63 63 60 57 59 56 54 52 48 47 48 48 43 34 27 22 2 3 1 3 5 5 5 5 6 4 1 3 3 4 4 3 5 3 4 6 8 7 4 4 4 10 2 4 6 3 3 12 11
37 45 55 58 58 61 64 61 63 62 59 58 55 51 49 49 48 45 15 24 29 7 3 2 4 2 4 8 6 5 5 6 5 3 3 3 2 2 5 4 3 5 6 4 7 5 1 2 3 2 4 6 5 12
22 24 30 53 62 64 62 59 62 63 62 60 58 54 49 50 46 47 20 27 24 2 3 2 3 6 11 20 28 5 0 6 3 4 3 2 3 3 4 3 3 3 3 3 2 4 4 3 2 3 2 4 5 9
28 31 20 15 46 60 53 59 57 62 65 62 58 53 51 48 45 45 25 24 25 2 2 1 4 5 10 16 11 5 11 6 5 4 3 3 2 3 3 4 3 4 5 5 2 2 1 5 3 6 7 10 12 11
32 33 43 40 39 45 41 55 56 56 58 62 60 54 51 45 43 36 24 23 28 1 2 1 3 5 3 6 7 8 9 5 3 3 2 3 2 3 1 1 2 4 6 4 5 7 4 4 8 11 11 9 12 15
37 41 44 46 47 48 51 54 53 52 54 61 58 52 46 44 44 30 2 20 11 13 3 2 2 4 1 7 3 1 5 3 3 3 2 1 2 3 2 3 2 3 3 1 3 5 2 6 8 6 10 12 11 13
41 42 44 45 48 51 52 51 53 58 57 56 52 50 49 48 41 12 5 11 32 11 3 3 2 1 2 4 1 0 2 2 3 3 2 3 0 3 2 2 3 4 4 3 7 10 5 7 6 9 13 17 19 17
42 41 42 46 48 53 56 57 57 57 55 53 51 49 46 40 26 5 6 24 28 8 2 3 2 2 4 2 3 3 2 2 3 3 2 3 2 2 2 4 2 4 6 5 7 1 7 7 12 11 17 18 14 12
49 42 42 45 48 51 53 55 55 56 54 51 48 46 36 21 4 5 30 23 16 3 3 2 4 4 3 4 2 3 2 2 2 2 3 4 1 3 6 6 7 7 8 7 4 6 10 11 13 12 12 13 14 12
51 51 46 48 48 49 50 51 52 53 55 54 42 8 3 6 17 20 9 0 2 2 2 2 2 3 5 2 1 3 1 3 2 3 3 2 3 2 2 5 7 8 7 9 8 7 10 11 14 12 11 9 11 11
47 50 52 52 56 55 54 54 56 51 33 8 3 3 18 31 8 2 3 4 3 2 1 3 4 6 2 4 2 0 2 1 2 3 4 2 3 2 4 5 5 6 7 7 5 7 9 11 11 10 11 12 15 19
43 40 41 47 51 51 39 38 36 11 7 13 19 20 6 2 3 4 1 1 3 5 1 7 5 7 2 3 3 1 2 2 2 1 3 2 3 5 6 4 5 6 6 7 11 8 11 12 14 14 14 16 18 20
36 38 37 34 27 27 29 23 19 34 36 22 5 4 3 3 5 4 4 1 2 2 3 4 4 3 3 4 3 3 3 3 1 3 3 3 3 6 6 5 4 4 7 9 7 14 17 16 17 14 14 20 24 22
31 29 29 29 28 26 26 30 30 21 9 4 4 5 3 2 0 2 2 3 2 4 9 5 3 3 1 4 1 4 2 2 3 0 4 2 4 5 4 6 7 4 7 8 9 14 13 13 14 19 24 27 26 21
32 28 26 24 20 20 22 20 12 9 5 4 4 3 2 2 2 1 2 2 2 4 4 3 4 3 2 3 2 3 3 2 5 4 2 1 2 6 5 5 8 7 7 7 11 9 12 15 16 16 20 25 26 25
19 25 27 18 14 17 17 13 17 5 4 3 5 3 2 3 5 4 4 7 3 3 3 4 3 4 1 4 2 4 5 5 3 2 2 2 3 4 5 5 5 9 10 11 12 13 14 15 16 17 20 22 24 26
23 13 19 13 18 13 8 5 5 5 4 4 3 2 2 3 5 4 3 3 3 3 2 3 3 4 2 2 2 1 3 2 3 2 2 2 4 5 6 6 9 13 13 14 14 15 14 17 21 19 14 14 20 21
14 21 18 9 5 10 12 8 4 4 6 4 3 4 3 3 2 3 3 3 3 2 2 3 4 2 3 3 3 2 2 3 3 2 1 1 4 7 10 9 13 15 15 16 16 16 17 17 13 11 15 18 17 16
17 21 15 12 8 6 4 7 6 4 4 2 2 3 2 1 1 1 2 3 2 2 3 2 4 2 1 1 2 3 3 2 2 1 2 4 7 9 10 12 16 15 16 16 14 12 13 12 12 16 18 18 16 17
14 18 19 15 6 5 4 3 5 4 3 1 2 3 2 1 2 2 3 4 3 2 4 3 2 1 1 1 2 3 3 4 4 2 2 1 6 10 10 11 10 13 13 13 12 13 12 10 12 16 18 18 19 18
12 18 15 8 7 11 4 2 4 2 2 2 3 3 2 3 3 4 3 3 4 2 2 2 2 1 4 6 12 10 5 7 5 3 3 3 5 9 9 11 14 14 11 11 10 10 13 11 14 17 20 20 20 21
11 12 6 10 5 5 4 7 3 2 3 1 2 2 2 2 3 3 3 4 3 2 2 2 1 2 4 4 4 5 6 6 6 10 10 13 3 2 5 9 10 8 11 13 12 12 13 15 18 18 20 20 19 22
9 8 7 8 6 5 2 4 4 3 3 2 1 2 2 2 2 3 3 2 2 3 3 3 5 9 7 9 12 10 6 11 7 7 10 10 10 11 11 12 11 11 8 12 14 15 16 17 21 21 21 20 20 20
8 5 4 4 4 0 2 4 2 2 2 1 2 3 2 2 3 2 3 2 1 2 4 4 4 2 3 5 3 4 7 7 9 8 8 10 6 7 12 13 13 13 13 13 16 14 17 20 21 22 21 21 21 21
6 6 5 5 3 5 5 4 4 3 1 1 3 1 1 1 1 2 2 2 1 2 3 4 3 2 3 2 3 7 6 1 8 3 4 7 9 10 8 8 9 11 13 15 16 18 20 23 21 21 22 22 21 21
6 4 4 0 3 3 0 2 1 1 2 3 0 1 1 2 3 3 2 1 1 2 2 2 1 1 3 4 2 2 4 4 9 6 5 4 8 8 5 3 3 3 14 17 21 20 21 21 21 23 20 22 26 26
4 3 3 1 1 2 3 2 1 4 3 2 2 2 3 3 1 2 1 3 2 2 3 5 5 3 5 6 8 7 4 6 4 8 7 6 3 5 9 9 7 6 6 16 19 22 23 22 24 22 20 23 26 26
2 3 3 3 3 1 3 2 2 1 0 2 3 2 4 2 1 1 2 4 6 4 4 3 4 4 6 8 8 7 8 11 11 10 8 7 7 5 2 5 5 6 5 7 17 19 23 24 23 24 26 24 21 22
2 3 3 5 5 4 3 2 2 2 3 1 3 1 2 2 3 2 3 3 3 5 6 5 4 3 5 5 4 3 7 9 8 3 3 0 2 4 6 8 7 7 9 13 16 17 19 22 25 25 25 25 22 20
3 1 3 2 3 2 2 2 2 2 2 2 0 2 2 2 5 8 6 5 5 4 5 4 9 8 7 8 6 5 6 9 5 8 4 4 6 9 8 9 13 16 18 20 23 23 21 23 24 24 24 23 21 21
2 3 3 2 2 2 2 2 1 1 0 1 2 1 2 3 4 10 12 9 5 4 5 5 4 6 6 11 10 8 3 3 4 4 6 11 15 13 13 14 16 18 20 21 23 24 24 24 24 23 22 22 20 19
0 1 1 2 1 2 1 2 1 1 0 1 1 1 2 2 2 3 10 9 13 14 12 12 10 7 6 3 7 13 5 6 4 8 15 16 16 15 15 16 17 18 19 20 20 21 20 22 22 21 21 20 18 17
1 2 0 1 0 1 2 3 2 1 1 1 1 2 2 2 2 2 4 7 7 7 7 7 7 7 7 6 7 8 10 10 10 10 12 13 15 15 16 16 16 17 18 19 19 18 19 20 21 20 20 19 18 17
Wind_Direction
253 249 245 241 237 233 227 221 216 211 207 202 201 199 198 201 201 197 208 207 204 266 278 203 187 150 139 175 163 171 110 212 102 164 147 193 185 212 192 171 169 180 177 190 191 197 257 126 101 175 192 39 150 152
264 254 243 236 229 223 220 214 209 205 203 198 195 196 196 198 200 193 196 192 196 244 260 293 204 236 270 203 136 184 159 158 167 133 181 164 206 153 171 214 179 196 189 183 186 213 213 262 212 145 143 140 156 145
324 300 263 237 222 216 207 205 201 197 195 192 191 191 192 193 190 189 190 176 177 303 333 48 323 331 18 205 183 126 246 161 153 163 126 211 191 151 177 212 124 236 186 156 110 211 219 204 54 86 99 122 137 146
14 17 17 214 200 195 197 192 188 189 190 188 184 185 186 187 183 183 181 177 176 214 130 354 9 65 346 145 145 154 132 79 94 108 136 204 169 176 198 153 188 203 137 146 282 296 53 265 178 138 99 110 112 127
35 48 61 86 132 157 167 173 168 172 178 179 180 181 180 177 173 174 181 187 179 272 75 104 10 5 56 159 106 119 122 132 130 122 146 193 155 102 330 74 226 185 170 168 221 195 168 220 157 144 133 140 139 134
60 67 78 89 102 116 131 146 154 160 164 165 167 169 165 164 161 155 124 188 193 181 94 133 331 333 336 87 125 286 181 116 116 127 163 208 199 108 115 211 230 162 140 154 224 151 133 139 137 142 138 144 144 141
67 79 84 91 101 109 120 133 146 147 147 152 154 153 157 158 159 167 178 180 194 190 201 110 101 170 232 42 307 345 88 127 120 124 118 146 186 102 130 208 222 190 161 134 126 105 94 160 168 147 139 142 145 140
67 80 90 96 105 111 115 119 125 131 137 140 145 152 153 153 156 221 143 156 182 211 100 108 99 94 171 217 156 192 105 55 36 133 83 123 21 65 258 239 183 145 131 154 179 8 161 132 140 147 148 146 146 148
67 77 92 104 105 113 117 121 126 131 134 137 138 136 136 149 136 174 155 156 215 101 110 107 138 167 191 205 105 43 93 75 46 174 193 116 195 215 228 183 186 175 174 183 153 114 136 150 153 154 154 157 153 159
59 75 96 100 112 114 117 121 125 127 127 125 124 94 106 190 127 129 152 173 351 311 100 121 145 158 146 118 132 101 28 146 138 241 103 146 235 254 240 192 173 168 182 142 127 146 156 168 171 166 164 159 161 154
68 70 86 97 101 110 114 116 120 119 118 137 105 83 120 134 156 132 148 183 180 107 105 168 138 128 18 108 137 156 170 148 131 245 140 260 271 238 159 150 168 164 164 170 160 167 170 172 164 155 145 158 158 146
83 84 89 92 99 103 103 123 139 140 158 123 113 104 93 75 52 95 236 348 107 180 182 143 139 141 173 119 102 335 106 55 187 165 83 269 256 152 150 159 169 174 174 161 155 152 151 153 149 148 151 154 149 137
74 83 91 100 117 137 141 147 109 109 112 122 80 85 86 318 57 132 172 341 91 178 154 124 98 117 60 52 61 76 79 200 68 53 220 225 214 149 146 143 119 109 106 134 125 144 140 142 152 150 129 142 147 145
69 76 82 83 89 108 125 127 123 121 51 57 57 44 66 359 260 208 196 152 207 122 119 108 70 95 83 58 126 86 232 83 54 91 232 228 156 139 126 127 116 103 108 112 124 142 142 130 125 140 146 152 151 150
62 69 73 66 78 95 121 126 115 80 65 61 53 65 25 244 261 254 239 104 37 121 86 75 49 76 33 86 75 93 43 219 200 223 205 238 102 126 118 119 121 122 117 119 123 121 124 130 130 129 145 153 156 156
62 56 40 52 80 96 108 97 59 68 57 67 48 30 344 81 71 46 66 86 33 80 71 57 94 64 342 133 106 199 158 211 224 122 120 109 108 108 119 115 118 122 125 125 129 132 133 136 139 138 146 154 163 167
50 29 27 57 75 88 87 65 55 51 61 49 25 345 349 56 63 53 30 356 351 68 102 95 77 190 114 86 117 151 177 202 133 88 51 62 144 141 125 123 128 129 129 131 128 132 128 140 141 134 129 150 162 170
40 26 25 31 101 85 57 40 73 67 56 31 50 12 34 35 29 21 347 354 64 90 85 174 134 93 135 133 174 170 103 64 55 80 63 62 119 131 142 141 144 147 143 146 146 144 146 144 144 146 150 156 157 161
35 33 32 43 65 73 53 25 42 82 47 26 1 342 51 4 88 235 294 349 44 102 97 46 63 84 112 132 120 98 124 129 126 87 36 48 125 135 136 141 149 148 148 151 150 152 159 164 162 157 157 158 159 162
47 49 48 58 67 77 65 13 50 72 47 2 9 357 88 90 311 352 353 14 24 57 44 43 39 37 104 26 112 120 107 117 118 109 75 59 111 123 135 145 147 152 142 143 146 152 150 149 161 165 165 165 160 166
25 20 33 45 50 61 84 51 50 105 120 58 329 35 2 11 12 9 356 340 54 37 68 54 55 347 64 83 108 128 129 143 175 167 171 155 159 138 130 140 148 150 150 153 155 166 171 172 167 175 174 178 184 177
356 15 40 39 66 54 66 23 111 115 76 128 38 40 31 20 341 340 301 45 57 8 22 105 165 75 67 62 69 99 130 153 115 116 122 130 138 135 139 152 148 149 162 170 169 172 178 180 183 183 177 187 185 178
12 31 46 36 64 48 282 353 73 35 99 140 91 84 21 11 287 324 73 70 77 2 19 48 69 102 98 90 81 67 120 113 100 126 143 161 170 170 168 175 183 167 173 196 205 196 186 185 185 182 180 178 173 166
27 50 46 50 59 96 5 16 51 62 64 105 105 105 94 330 323 32 76 66 52 349 28 18 118 82 57 77 62 30 37 100 91 86 163 152 138 164 183 187 191 201 205 198 193 190 182 182 178 170 166 156 153 151
63 343 73 353 342 55 42 16 2 54 76 24 79 32 219 282 68 52 82 94 45 25 6 359 36 99 115 90 76 69 47 97 135 106 62 169 142 139 145 168 191 205 203 182 177 173 175 174 163 158 161 157 151 146
68 311 82 353 324 84 359 50 31 157 94 46 52 257 13 68 61 64 56 46 67 52 13 18 356 94 33 41 105 64 16 122 143 101 67 143 175 164 161 158 146 153 202 200 182 174 165 163 164 167 159 156 157 154
51 323 332 332 145 82 37 7 37 80 72 122 246 30 62 64 84 106 110 24 100 80 43 34 22 75 120 107 95 65 53 160 140 120 117 103 138 203 208 190 187 198 197 202 195 187 171 168 170 165 153 158 167 173
166 53 85 287 26 37 118 59 79 113 293 351 74 59 135 157 180 54 80 88 102 124 115 91 65 108 121 129 119 115 112 116 121 122 113 88 70 67 152 200 191 173 187 199 196 190 181 170 165 160 157 152 161 176
37 310 54 5 1 32 52 54 69 49 340 67 113 50 81 47 21 58 90 122 149 169 159 153 141 132 111 116 121 153 170 170 145 81 79 265 19 81 113 126 135 151 166 164 170 175 176 168 165 162 160 160 159 157
320 31 74 45 85 50 52 6 53 18 7 21 13 98 95 79 37 47 64 47 35 17 346 244 191 183 184 178 169 182 211 219 244 209 168 194 186 157 158 150 142 140 142 142 138 138 159 157 152 148 144 141 144 143
5 37 35 67 99 52 41 358 265 178 49 73 33 29 110 124 89 41 30 8 338 336 355 355 286 236 221 193 190 189 175 224 280 294 213 169 157 154 151 150 149 148 147 145 145 146 145 142 142 142 142 142 145 147
131 335 89 33 342 249 98 14 353 325 295 156 233 137 137 134 92 352 16 35 61 52 44 46 55 45 106 148 215 212 232 192 183 158 157 155 150 150 151 151 152 150 147 144 143 143 146 144 143 143 142 142 144 145
339 17 347 320 360 60 336 72 327 273 36 79 10 6 52 104 162 215 57 41 49 46 45 45 50 73 90 101 117 138 151 152 153 156 154 151 150 150 151 151 151 148 146 142 140 141 141 142 141 142 142 142 143 144